Overview Statistics Trail Chart Weather Telemetry Raw packets
 

This is the latest recevied weather packets stored in our database for station/object N8BAP. If no packets are shown the sender has not sent any weather packets the latest 10 day(s).

<< 9 10 11 12 13 14 15 >>
Time Temp. Humidity Pressure Rain* Wind** Luminosity Snow
1788558870 21.11° C 97% 1020.1 hPa 0 mm - 16 W/m² -
1788558566 21.11° C 97% 1020.4 hPa 0 mm - 29 W/m² -
1788558262 21.11° C 97% 1020.1 hPa 0 mm - 42 W/m² -
1788557961 20.56° C 96% 1019.8 hPa 0 mm - 55 W/m² -
1788557655 20.56° C 97% 1019.8 hPa 0 mm - 57 W/m² -
1788557352 20.56° C 96% 1020 hPa 0 mm - 55 W/m² -
1788557051 20.56° C 96% 1020.2 hPa 1.78 mm - 62 W/m² -
1788556747 20.56° C 96% 1020.5 hPa 3.05 mm - 38 W/m² -
1788556441 20° C 95% 1020.7 hPa 7.87 mm - 29 W/m² -
1788556136 20.56° C 95% 1021 hPa 40.13 mm - 31 W/m² -
1788555836 20.56° C 94% 1022.4 hPa 77.47 mm - 40 W/m² -
1788555532 21.11° C 93% 1023.2 hPa 74.93 mm - 32 W/m² -
1788555227 22.22° C 89% 1022.3 hPa 49.78 mm - 10 W/m² -
1788554924 27.78° C 74% 1022.4 hPa 11.94 mm - 2 W/m² -
1788554620 32.22° C 63% 1021.5 hPa 0 mm - 16 W/m² -
1788554316 32.78° C 58% 1019.9 hPa 0 mm - 78 W/m² -
1788554012 32.78° C 59% 1019.8 hPa 0 mm - 299 W/m² -
1788553707 32.78° C 60% 1020.1 hPa 0 mm - 196 W/m² -
1788553403 32.78° C 60% 1020 hPa 0 mm - 246 W/m² -
1788553099 32.78° C 60% 1020.3 hPa 0 mm - 226 W/m² -
1788552793 33.33° C 57% 1020.2 hPa 0 mm - 563 W/m² -
1788552488 33.33° C 57% 1020.3 hPa 0 mm - 514 W/m² -
1788552182 33.89° C 57% 1020.3 hPa 0 mm - 537 W/m² -
1788551882 33.89° C 51% 1020.5 hPa 0 mm - 571 W/m² -
1788551580 35° C 51% 1020.4 hPa 0 mm - 169 W/m² -

* Rain latest hour (hover to see other rain measurements)
** Current wind speed in m/s (hover to see current wind gust speed)